Weather reports worldwide

Advertisment
Badajoz/Talavera La Real, Spain (8330): temperature & dewpoint: 11.06.2019 05:00:00 - 17.06.2019 05:00:00 (CEST)Badajoz/Talavera La Real, Spain (8330): wind speed: 11.06.2019 05:00:00 - 17.06.2019 05:00:00 (CEST)Badajoz/Talavera La Real, Spain (8330): wind direction: 11.06.2019 05:00:00 - 17.06.2019 05:00:00 (CEST)Badajoz/Talavera La Real, Spain (8330): reduced air pressure: 11.06.2019 05:00:00 - 17.06.2019 05:00:00 (CEST)Badajoz/Talavera La Real, Spain (8330): visibility: 11.06.2019 05:00:00 - 17.06.2019 05:00:00 (CEST)Badajoz/Talavera La Real, Spain (8330): precipitation: 11.06.2019 05:00:00 - 17.06.2019 05:00:00 (CEST)
Date & Time tt [°C] td [°C] ff [km/h] ff [kn] dd ppp [hPa] vv [km] rr [mm]
17.06.2019 05:00:00 14,9 8,8 4 2 SW 1017,6 - -
17.06.2019 04:00:00 16,4 9,6 4 2 SSW 1017,6 - 0,0
17.06.2019 03:00:00 17,6 10,2 4 2 SW 1017,5 - 0,0
17.06.2019 02:00:00 18,9 10,7 5 3 WSW 1017,6 - -
17.06.2019 01:00:00 20,1 11,0 5 3 SW 1017,4 - 0,0
17.06.2019 00:00:00 21,4 10,8 9 5 W 1016,8 - 0,0
16.06.2019 23:00:00 24,2 6,5 11 6 W 1015,9 - -
16.06.2019 22:00:00 25,7 7,3 11 6 W 1014,9 - 0,0
16.06.2019 21:00:00 30,0 0,5 9 5 WSW 1014,2 - 0,0
16.06.2019 20:00:00 31,1 -1,7 11 6 WSW 1014,0 50 -
16.06.2019 19:00:00 31,7 -1,2 13 7 W 1014,0 - 0,0
16.06.2019 18:00:00 31,0 3,1 11 6 W 1014,2 - 0,0
16.06.2019 17:00:00 30,3 4,8 9 5 NNW 1014,8 45 -
16.06.2019 16:00:00 29,0 5,8 5 3 NW 1015,6 - 0,0
16.06.2019 15:00:00 28,1 6,8 4 2 SSW 1016,1 - 0,0
16.06.2019 14:00:00 27,6 8,5 5 3 SE 1016,5 45 -
16.06.2019 13:00:00 25,8 8,7 5 3 ENE 1016,8 - 0,0
16.06.2019 12:00:00 23,1 9,1 4 2 E 1017,5 - 0,0
16.06.2019 11:00:00 20,7 9,9 5 3 ENE 1018,0 35 -
16.06.2019 10:00:00 18,1 9,2 4 2 WNW 1018,1 - 0,0
16.06.2019 09:00:00 15,2 8,7 8 4 W 1018,2 - 0,0
16.06.2019 08:00:00 14,7 8,2 5 3 W 1018,2 40 -
16.06.2019 07:00:00 13,6 7,8 4 2 W 1018,0 - 0,0
16.06.2019 06:00:00 14,0 8,0 8 4 W 1017,5 - 0,0
16.06.2019 05:00:00 14,8 7,8 8 4 W 1017,6 - -
16.06.2019 04:00:00 15,5 8,0 5 3 WSW 1017,7 - 0,0
16.06.2019 03:00:00 16,4 8,1 8 4 W 1017,8 - 0,0
16.06.2019 02:00:00 17,4 8,8 9 5 W 1018,2 - -
16.06.2019 01:00:00 18,2 9,3 11 6 W 1018,3 - 0,0
16.06.2019 00:00:00 19,5 6,6 11 6 W 1018,0 - 0,0
15.06.2019 23:00:00 22,0 5,0 5 3 W 1017,7 - -
15.06.2019 22:00:00 24,7 5,5 5 3 WSW 1017,0 - 0,0
15.06.2019 21:00:00 26,4 3,6 5 3 W 1017,0 - 0,0
15.06.2019 20:00:00 27,1 3,5 9 5 WNW 1016,8 30 -
15.06.2019 19:00:00 27,3 3,7 5 3 WSW 1017,0 - 0,0
15.06.2019 18:00:00 26,7 3,8 8 4 W 1017,6 - 0,0
15.06.2019 17:00:00 25,7 4,2 8 4 NW 1018,2 30 -
15.06.2019 16:00:00 25,1 3,1 8 4 SSW 1018,8 - 0,0
15.06.2019 15:00:00 23,9 3,8 8 4 WNW 1019,6 - 0,0
15.06.2019 14:00:00 23,1 4,6 8 4 W 1020,3 30 -
15.06.2019 13:00:00 21,5 5,8 9 5 WNW 1020,7 - 0,0
15.06.2019 12:00:00 20,0 6,7 8 4 W 1021,1 - 0,0
15.06.2019 11:00:00 18,0 8,0 5 3 WNW 1021,4 30 -
15.06.2019 10:00:00 16,5 8,5 5 3 W 1021,3 - 0,0
15.06.2019 09:00:00 14,4 9,2 8 4 WNW 1021,3 - 0,0
15.06.2019 08:00:00 12,4 8,3 5 3 SW 1020,8 30 -
15.06.2019 07:00:00 11,2 7,9 5 3 WSW 1020,6 - 0,0
15.06.2019 06:00:00 11,9 7,8 4 2 WSW 1020,4 - 0,0
15.06.2019 05:00:00 12,6 7,7 5 3 WSW 1020,4 - -
15.06.2019 04:00:00 13,4 7,6 8 4 W 1020,4 - 0,0
15.06.2019 03:00:00 13,9 7,4 8 4 WSW 1020,2 - 0,0
15.06.2019 02:00:00 13,8 7,1 9 5 W 1020,3 - -
15.06.2019 01:00:00 15,4 6,7 8 4 W 1020,0 - 0,0
15.06.2019 00:00:00 15,5 6,5 8 4 W 1019,7 - 0,0
14.06.2019 23:00:00 16,1 6,5 9 5 W 1019,0 - -
14.06.2019 22:00:00 17,8 6,0 11 6 W 1018,3 - 0,0
14.06.2019 21:00:00 19,9 6,6 18 10 WNW 1017,6 - 0,0
14.06.2019 20:00:00 20,7 6,2 18 10 WNW 1016,8 20 -
14.06.2019 19:00:00 22,1 5,1 24 13 WNW 1016,1 - 0,0
14.06.2019 18:00:00 23,3 4,7 18 10 W 1016,0 - 0,0
14.06.2019 17:00:00 23,2 4,7 21 11 W 1015,8 15 -
14.06.2019 16:00:00 21,2 5,5 18 10 WNW 1016,2 - 0,0
14.06.2019 15:00:00 21,0 4,9 18 10 W 1016,3 - 0,0
14.06.2019 14:00:00 21,1 3,8 18 10 W 1016,3 15 -
14.06.2019 13:00:00 20,6 5,4 22 12 WNW 1016,1 - 0,0
14.06.2019 12:00:00 19,7 6,1 21 11 W 1015,9 - 0,0
14.06.2019 11:00:00 17,9 7,3 16 9 WSW 1015,5 20 -
14.06.2019 10:00:00 16,5 7,2 15 8 W 1015,2 - 0,0
14.06.2019 09:00:00 14,1 8,5 9 5 W 1014,9 - 0,0
14.06.2019 08:00:00 11,7 8,0 5 3 SW 1014,8 20 -
14.06.2019 07:00:00 10,2 7,3 5 3 SSW 1014,6 - 0,0
14.06.2019 06:00:00 10,6 7,1 4 2 SW 1013,7 - 0,0
14.06.2019 05:00:00 11,3 6,6 2 1 SW 1013,7 - -
14.06.2019 04:00:00 12,3 7,0 8 4 W 1013,8 - 0,0
14.06.2019 03:00:00 13,5 7,0 9 5 W 1013,8 - 0,0
14.06.2019 02:00:00 13,9 6,5 9 5 W 1013,2 - -
14.06.2019 01:00:00 15,0 6,3 13 7 W 1012,9 - 0,0
14.06.2019 00:00:00 16,4 5,6 18 10 WNW 1012,4 - 0,0
13.06.2019 23:00:00 18,4 5,9 18 10 W 1011,5 - -
13.06.2019 22:00:00 21,1 4,6 16 9 W 1010,2 - 0,0
13.06.2019 21:00:00 24,3 3,0 18 10 W 1009,0 - 0,0
13.06.2019 20:00:00 25,3 2,0 21 11 WNW 1008,2 15 -
13.06.2019 19:00:00 26,3 1,5 21 11 WNW 1008,0 - 0,0
13.06.2019 18:00:00 27,2 4,3 18 10 WNW 1008,0 - 0,0
13.06.2019 17:00:00 26,9 4,0 13 7 WNW 1008,5 15 -
13.06.2019 16:00:00 26,0 3,9 11 6 W 1009,0 - 0,0
13.06.2019 15:00:00 24,1 5,9 9 5 W 1009,8 - 0,0
13.06.2019 14:00:00 22,5 5,8 11 6 WNW 1010,4 15 -
13.06.2019 13:00:00 20,5 6,4 8 4 W 1011,1 - 0,0
13.06.2019 12:00:00 18,6 6,4 5 3 W 1011,7 - 0,0
13.06.2019 11:00:00 16,3 7,2 5 3 WSW 1012,0 20 -
13.06.2019 10:00:00 14,6 7,2 5 3 WSW 1012,2 - 0,0
13.06.2019 09:00:00 13,0 7,7 8 4 WSW 1012,0 - 0,0
13.06.2019 08:00:00 10,7 7,0 5 3 SW 1011,8 20 -
13.06.2019 07:00:00 9,4 6,5 5 3 SSW 1011,6 - 0,0
13.06.2019 06:00:00 10,1 6,2 4 2 SW 1011,5 - 0,0
13.06.2019 05:00:00 10,9 5,6 4 2 S 1011,6 - -
13.06.2019 04:00:00 12,3 6,6 11 6 W 1011,5 - 0,0
13.06.2019 03:00:00 13,1 5,7 11 6 W 1011,6 - 0,0
13.06.2019 02:00:00 14,1 5,2 13 7 W 1011,6 - -
13.06.2019 01:00:00 15,3 4,6 15 8 W 1011,6 - 0,0
13.06.2019 00:00:00 16,9 4,6 15 8 W 1011,1 - 0,0
12.06.2019 23:00:00 19,2 5,3 18 10 W 1010,2 - -
12.06.2019 22:00:00 22,0 -0,7 15 8 WNW 1009,0 - 0,0
12.06.2019 21:00:00 25,1 -1,7 21 11 WNW 1008,4 - 0,0
12.06.2019 20:00:00 27,5 -4,5 22 12 WNW 1008,0 15 -
12.06.2019 19:00:00 29,1 -5,6 16 9 W 1008,0 - 0,0
12.06.2019 18:00:00 28,9 -5,8 15 8 WNW 1008,5 - 0,0
12.06.2019 17:00:00 29,6 -4,0 16 9 W 1008,8 15 -
12.06.2019 16:00:00 28,3 -0,8 21 11 WNW 1009,5 - 0,0
12.06.2019 15:00:00 27,6 -2,3 13 7 W 1010,6 - 0,0
12.06.2019 14:00:00 26,4 -1,5 11 6 WNW 1011,4 15 -
12.06.2019 13:00:00 25,3 1,4 8 4 NNW 1012,1 - 0,0
12.06.2019 12:00:00 23,0 1,3 8 4 ENE 1012,7 - 0,0
12.06.2019 11:00:00 21,1 2,4 5 3 NE 1013,1 15 -
12.06.2019 10:00:00 18,4 3,0 5 3 NW 1013,4 - 0,0
12.06.2019 09:00:00 16,8 3,1 4 2 NW 1013,7 - 0,0
12.06.2019 08:00:00 14,6 3,4 2 1 SSW 1013,4 15 -
12.06.2019 07:00:00 12,3 2,7 2 1 WNW 1013,2 - 0,0
12.06.2019 06:00:00 13,1 3,2 4 2 W 1012,9 - 0,0
12.06.2019 05:00:00 14,5 2,4 5 3 W 1013,0 - -
12.06.2019 04:00:00 14,7 1,6 8 4 W 1013,2 - 0,0
12.06.2019 03:00:00 14,7 1,2 11 6 W 1013,4 - 0,0
12.06.2019 02:00:00 15,9 1,9 9 5 W 1013,5 - -
12.06.2019 01:00:00 18,0 -0,3 8 4 W 1013,4 - 0,0
12.06.2019 00:00:00 19,0 -2,6 4 2 N 1013,2 - 0,0
11.06.2019 23:00:00 20,0 -3,0 4 2 NNE 1012,8 - -
11.06.2019 22:00:00 21,8 -2,9 13 7 NNE 1012,1 - 0,0
11.06.2019 21:00:00 24,6 -2,9 21 11 NNE 1011,7 - 0,0
11.06.2019 20:00:00 25,7 -0,4 21 11 N 1011,3 15 -
11.06.2019 19:00:00 26,5 1,0 22 12 N 1011,0 - 0,0
11.06.2019 18:00:00 26,7 1,1 18 10 NNW 1011,1 - 0,0
11.06.2019 17:00:00 27,2 -0,8 28 15 NNW 1011,5 15 -
11.06.2019 16:00:00 26,5 -0,6 28 15 N 1011,7 - 0,0
11.06.2019 15:00:00 25,8 3,1 24 13 NNW 1012,2 - 0,0
11.06.2019 14:00:00 25,1 4,8 26 14 NW 1012,4 15 -
11.06.2019 13:00:00 23,6 5,9 24 13 NNW 1012,8 - 0,0
11.06.2019 12:00:00 22,6 6,8 28 15 NNW 1013,0 - 0,0
11.06.2019 11:00:00 21,1 7,3 21 11 NW 1013,3 20 -
11.06.2019 10:00:00 18,0 8,0 15 8 WNW 1013,6 - 0,0
11.06.2019 09:00:00 15,7 7,7 11 6 W 1014,0 - 0,0
11.06.2019 08:00:00 13,8 7,6 11 6 W 1014,0 20 -
11.06.2019 07:00:00 12,4 7,3 9 5 W 1014,2 - 0,0
11.06.2019 06:00:00 12,7 7,4 15 8 W 1014,4 - 0,0
11.06.2019 05:00:00 13,4 6,5 11 6 W 1014,6 - -

tt = temperature
td = dewpoint
ff = wind speed
dd = wind direction
ppp = reduced air pressure
vv = visibility
rr = precipitation

Next stations